Location: Les Chemineaux
(47.3024°N, 1.5104°E)
Time: 06:12:20
(UTC+00:00)

Cosmos 2221 - Pass Details

Date: 19 May 2025
Orbit: 572 x 593 km, 82.5° (Epoch: 18 June)

Event Time Altitude Azimuth Distance (km) Brightness Sun altitude
Exits shadow 21:37:38 31° 163° (SSE) 1,021 3.1 -16.4°
Maximum altitude 21:39:26 60° 95° (E) 665 2.5 -16.6°
Drops below altitude 10° 21:43:33 10° 16° (NNE) 1,896 5.6 -16.9°
Sets 21:45:46 0° 13° (NNE) 2,798 6.7 -17.1°
